Location: Newark
(54.4333°N, 18.5500°E)
Time: 08:58:38
(UTC+00:00)

Envisat - Pass Details

Date: 12 December 2019
Orbit: 764 x 766 km, 98.1° (Epoch: 20 January)

Event Time Altitude Azimuth Distance (km) Brightness Sun altitude
Rises 18:04:27 0° 214° (SW) 3,226 6.6 -30.9°
Reaches altitude 10° 18:07:35 10° 235° (SW) 2,305 6.0 -31.3°
Maximum altitude 18:10:49 17° 274° (W) 1,884 5.7 -31.8°
Drops below altitude 10° 18:14:03 10° 314° (NW) 2,316 6.0 -32.2°
Sets 18:17:14 0° 335° (NNW) 3,248 6.6 -32.7°
